User: anonymous   Login
Location: Unspecified
(0.0000°N, 0.0000°E)
Time: 16:15:53
(UTC+01:00)
Language:

Cosmos 1898 Rocket - Orbit

View from above orbital plane
View from above orbital plane
View from above satellite
View from above satellite

Ground track
Ground track

The orbit data is extracted from the following two-line orbital elements,

1 18586U 87098B   16040.20793263  .00000123  00000-0  50710-4 0  9996
2 18586  74.0073 124.8922 0022217 296.8614  91.3115 14.36700084476425
Epoch (UTC): 09 February 2016 04:59:25
Eccentricity: 0.0022217
inclination: 74.0073°
perigee height: 753 km
apogee height: 785 km
right ascension of ascending node: 124.8922°
argument of perigee: 296.8614°
revolutions per day: 14.36700084
mean anomaly at epoch: 91.3115°
orbit number at epoch: 47642

The dashed part of the orbit path shows where the satellite is in the earth's shadow,  

DLR